FFT4499 KLAX-KPDX

Flight info

Callsign FFT4499
Flight time 1h 55m
Altitude 36000
Route LADYJ4 CSTRO SHIMR LMT MOXEE TMBRS4
Aircraft A321/M-SDE3FGHIRWY/LB1

Departure

Time 2026-04-20 01:31
Airport Los Angeles International Airport (KLAX)

Arrival

Time 2026-04-20 03:27
Airport Portland International Airport (KPDX)
Time Latitude Longitude Altitude Speed Heading
2026-04-20 01:10 33.94320 -118.41424 93 ft 0 kts 281°
2026-04-20 01:21 33.94319 -118.41418 93 ft 2 kts 281°
2026-04-20 01:21 33.94315 -118.41395 92 ft 3 kts 282°
2026-04-20 01:21 33.94310 -118.41371 94 ft 3 kts 282°
2026-04-20 01:22 33.94306 -118.41350 93 ft 3 kts 296°
2026-04-20 01:22 33.94295 -118.41332 91 ft 3 kts 327°
2026-04-20 01:22 33.94278 -118.41322 92 ft 3 kts 351°
2026-04-20 01:22 33.94267 -118.41321 92 ft 1 kts 353°
2026-04-20 01:23 33.94266 -118.41320 92 ft 0 kts 353°
2026-04-20 01:24 33.94281 -118.41323 93 ft 8 kts 353°
2026-04-20 01:25 33.94343 -118.41332 94 ft 9 kts 353°
2026-04-20 01:25 33.94399 -118.41340 95 ft 8 kts 353°
2026-04-20 01:25 33.94449 -118.41347 93 ft 7 kts 353°
2026-04-20 01:25 33.94511 -118.41356 95 ft 9 kts 353°
2026-04-20 01:26 33.94576 -118.41366 93 ft 12 kts 353°
2026-04-20 01:26 33.94667 -118.41380 95 ft 13 kts 353°
2026-04-20 01:26 33.94751 -118.41390 95 ft 11 kts
2026-04-20 01:26 33.94788 -118.41328 94 ft 9 kts 81°
2026-04-20 01:27 33.94795 -118.41259 94 ft 9 kts 83°
2026-04-20 01:27 33.94807 -118.41131 96 ft 20 kts 81°
2026-04-20 01:27 33.94824 -118.40974 96 ft 18 kts 83°
2026-04-20 01:27 33.94840 -118.40828 94 ft 17 kts 83°
2026-04-20 01:28 33.94853 -118.40693 94 ft 15 kts 83°
2026-04-20 01:28 33.94866 -118.40571 95 ft 14 kts 83°
2026-04-20 01:28 33.94877 -118.40459 97 ft 13 kts 83°
2026-04-20 01:28 33.94888 -118.40358 94 ft 11 kts 83°
2026-04-20 01:29 33.94897 -118.40270 94 ft 10 kts 83°
2026-04-20 01:29 33.94905 -118.40185 96 ft 13 kts 83°
2026-04-20 01:29 33.94916 -118.40084 96 ft 12 kts 83°
2026-04-20 01:29 33.94925 -118.39991 93 ft 10 kts 83°
2026-04-20 01:30 33.94947 -118.39929 93 ft 7 kts 45°
2026-04-20 01:30 33.94989 -118.39912 94 ft 7 kts 360°
2026-04-20 01:30 33.95041 -118.39933 94 ft 8 kts 308°
2026-04-20 01:30 33.95037 -118.40004 95 ft 14 kts 262°
2026-04-20 01:31 33.94997 -118.40397 97 ft 81 kts 263°
2026-04-20 01:31 33.94903 -118.41308 101 ft 135 kts 263°
2026-04-20 01:31 33.94766 -118.42570 181 ft 166 kts 262°
2026-04-20 01:31 33.94604 -118.43936 789 ft 164 kts 261°
2026-04-20 01:32 33.94458 -118.45303 1424 ft 165 kts 262°
2026-04-20 01:32 33.94325 -118.46695 1932 ft 172 kts 262°
2026-04-20 01:32 33.94229 -118.48228 2103 ft 193 kts 265°
2026-04-20 01:32 33.94179 -118.49900 2323 ft 206 kts 267°
2026-04-20 01:33 33.94121 -118.51714 2444 ft 229 kts 264°
2026-04-20 01:33 33.93995 -118.53713 2652 ft 254 kts 263°
2026-04-20 01:33 33.93835 -118.55890 3265 ft 265 kts 263°
2026-04-20 01:33 33.93663 -118.58128 3986 ft 271 kts 263°
2026-04-20 01:34 33.93594 -118.60420 4736 ft 278 kts 275°
2026-04-20 01:34 33.94123 -118.62688 5467 ft 286 kts 295°
2026-04-20 01:34 33.95308 -118.64630 6227 ft 292 kts 317°
2026-04-20 01:34 33.96978 -118.66043 6923 ft 296 kts 328°
2026-04-20 01:35 33.98844 -118.67116 7651 ft 299 kts 342°
2026-04-20 01:35 34.00891 -118.67610 7927 ft 300 kts 358°
2026-04-20 01:35 34.02943 -118.67529 7999 ft 299 kts
2026-04-20 01:35 34.05018 -118.67375 8005 ft 299 kts
2026-04-20 01:36 34.07098 -118.67230 7997 ft 298 kts
2026-04-20 01:36 34.09150 -118.66845 8136 ft 301 kts 13°
2026-04-20 01:36 34.11207 -118.66348 8916 ft 302 kts 12°
2026-04-20 01:36 34.13287 -118.65858 9646 ft 307 kts 12°
2026-04-20 01:37 34.15406 -118.65365 10231 ft 316 kts 12°
2026-04-20 01:37 34.17646 -118.64843 10393 ft 339 kts 12°
2026-04-20 01:37 34.20036 -118.64283 10643 ft 357 kts 11°
2026-04-20 01:37 34.22502 -118.63717 11203 ft 364 kts
2026-04-20 01:38 34.25040 -118.63550 11843 ft 368 kts 356°
2026-04-20 01:38 34.27587 -118.63966 12502 ft 371 kts 348°
2026-04-20 01:38 34.30133 -118.64554 13185 ft 374 kts 348°
2026-04-20 01:38 34.32677 -118.65141 13861 ft 377 kts 348°
2026-04-20 01:39 34.35275 -118.65738 14468 ft 381 kts 348°
2026-04-20 01:39 34.37890 -118.66335 15094 ft 383 kts 348°
2026-04-20 01:39 34.40519 -118.66933 15701 ft 386 kts 348°
2026-04-20 01:39 34.43171 -118.67535 16300 ft 389 kts 348°
2026-04-20 01:40 34.45855 -118.68102 16898 ft 393 kts 349°
2026-04-20 01:40 34.48571 -118.68632 17482 ft 396 kts 349°
2026-04-20 01:40 34.51274 -118.69138 18049 ft 399 kts 349°
2026-04-20 01:40 34.54036 -118.69650 18573 ft 402 kts 349°
2026-04-20 01:41 34.56812 -118.70173 19069 ft 404 kts 349°
2026-04-20 01:41 34.59597 -118.70707 19599 ft 406 kts 349°
2026-04-20 01:41 34.62391 -118.71251 20102 ft 408 kts 349°
2026-04-20 01:41 34.65199 -118.71805 20583 ft 411 kts 348°
2026-04-20 01:42 34.68029 -118.72367 21084 ft 412 kts 348°
2026-04-20 01:42 34.70842 -118.73052 21567 ft 413 kts 341°
2026-04-20 01:42 34.73528 -118.74268 22054 ft 412 kts 332°
2026-04-20 01:42 34.76045 -118.75931 22549 ft 412 kts 328°
2026-04-20 01:43 34.78544 -118.77647 23030 ft 414 kts 328°
2026-04-20 01:43 34.81057 -118.79372 23513 ft 415 kts 328°
2026-04-20 01:43 34.83583 -118.81108 23903 ft 417 kts 328°
2026-04-20 01:43 34.86082 -118.82822 24279 ft 418 kts 328°
2026-04-20 01:44 34.88617 -118.84563 24683 ft 419 kts 328°
2026-04-20 01:44 34.91157 -118.86311 25081 ft 420 kts 328°
2026-04-20 01:44 34.93676 -118.88049 25449 ft 421 kts 328°
2026-04-20 01:44 34.96225 -118.89810 25844 ft 422 kts 328°
2026-04-20 01:45 34.98786 -118.91578 26234 ft 423 kts 328°
2026-04-20 01:45 35.01349 -118.93347 26580 ft 425 kts 328°
2026-04-20 01:45 35.03929 -118.95130 26918 ft 427 kts 328°
2026-04-20 01:45 35.06520 -118.96923 27278 ft 429 kts 328°
2026-04-20 01:46 35.09119 -118.98719 27635 ft 430 kts 328°
2026-04-20 01:46 35.11726 -119.00519 27995 ft 431 kts 328°
2026-04-20 01:46 35.14339 -119.02328 28349 ft 432 kts 327°
2026-04-20 01:46 35.16929 -119.04126 28669 ft 434 kts 327°
2026-04-20 01:47 35.19559 -119.05950 29007 ft 435 kts 327°
2026-04-20 01:47 35.22204 -119.07785 29305 ft 437 kts 327°
2026-04-20 01:47 35.24860 -119.09630 29590 ft 439 kts 327°
2026-04-20 01:47 35.27524 -119.11480 29891 ft 440 kts 327°
2026-04-20 01:48 35.30198 -119.13336 30157 ft 442 kts 327°
2026-04-20 01:48 35.32878 -119.15200 30429 ft 443 kts 327°
2026-04-20 01:48 35.35559 -119.17073 30699 ft 444 kts 327°
2026-04-20 01:48 35.38211 -119.18929 31067 ft 443 kts 327°
2026-04-20 01:49 35.40877 -119.20794 31462 ft 441 kts 327°
2026-04-20 01:49 35.43575 -119.22599 31845 ft 441 kts 332°
2026-04-20 01:49 35.46446 -119.23979 32239 ft 443 kts 340°
2026-04-20 01:49 35.49447 -119.24916 32630 ft 443 kts 343°
2026-04-20 01:50 35.52448 -119.25799 33052 ft 441 kts 342°
2026-04-20 01:50 35.55385 -119.26673 33478 ft 438 kts 342°
2026-04-20 01:50 35.58343 -119.27559 33896 ft 436 kts 342°
2026-04-20 01:50 35.61291 -119.28443 34196 ft 436 kts 342°
2026-04-20 01:51 35.64240 -119.29328 34470 ft 436 kts 342°
2026-04-20 01:51 35.67187 -119.30213 34738 ft 436 kts 342°
2026-04-20 01:51 35.70132 -119.31100 35008 ft 436 kts 342°
2026-04-20 01:51 35.73077 -119.31986 35262 ft 435 kts 342°
2026-04-20 01:52 35.76024 -119.32870 35521 ft 435 kts 341°
2026-04-20 01:52 35.78980 -119.33757 35773 ft 436 kts 341°
2026-04-20 01:52 35.84833 -119.35515 35871 ft 433 kts 341°
2026-04-20 01:53 35.90685 -119.37272 35870 ft 431 kts 341°
2026-04-20 01:53 35.96511 -119.39032 35874 ft 431 kts 341°
2026-04-20 01:54 36.02309 -119.40785 35876 ft 431 kts 341°
2026-04-20 01:54 36.08145 -119.42555 35874 ft 431 kts 341°
2026-04-20 01:55 36.13982 -119.44324 35875 ft 431 kts 341°
2026-04-20 01:55 36.19824 -119.46103 35883 ft 432 kts 341°
2026-04-20 01:56 36.25665 -119.47876 35879 ft 432 kts 341°
2026-04-20 01:56 36.31467 -119.49639 35878 ft 432 kts 341°
2026-04-20 01:57 36.37313 -119.51423 35869 ft 432 kts 341°
2026-04-20 01:57 36.43162 -119.53212 35879 ft 433 kts 341°
2026-04-20 01:58 36.49024 -119.55002 35873 ft 433 kts 341°
2026-04-20 01:58 36.54846 -119.56787 35869 ft 433 kts 341°
2026-04-20 01:59 36.60716 -119.58585 35883 ft 433 kts 341°
2026-04-20 01:59 36.66581 -119.60387 35877 ft 434 kts 341°
2026-04-20 02:00 36.72450 -119.62195 35874 ft 434 kts 341°
2026-04-20 02:00 36.77330 -119.63703 35874 ft 434 kts 341°
2026-04-20 02:01 36.83202 -119.65519 35880 ft 435 kts 341°
2026-04-20 02:01 36.89076 -119.67328 35878 ft 435 kts 341°
2026-04-20 02:02 36.94915 -119.69139 35878 ft 435 kts 341°
2026-04-20 02:02 37.00787 -119.70962 35891 ft 435 kts 341°
2026-04-20 02:03 37.06660 -119.72788 35887 ft 435 kts 341°
2026-04-20 02:03 37.12536 -119.74616 35887 ft 435 kts 341°
2026-04-20 02:04 37.18414 -119.76447 35908 ft 435 kts 341°
2026-04-20 02:04 37.24293 -119.78277 35911 ft 435 kts 341°
2026-04-20 02:05 37.30172 -119.80117 35922 ft 435 kts 341°
2026-04-20 02:05 37.36053 -119.81961 35918 ft 436 kts 341°
2026-04-20 02:06 37.41939 -119.83802 35911 ft 436 kts 340°
2026-04-20 02:06 37.47831 -119.85652 35913 ft 437 kts 340°
2026-04-20 02:07 37.53728 -119.87513 35920 ft 437 kts 340°
2026-04-20 02:07 37.59589 -119.89368 35931 ft 437 kts 340°
2026-04-20 02:08 37.65498 -119.91236 35929 ft 439 kts 340°
2026-04-20 02:08 37.71425 -119.93107 35934 ft 439 kts 341°
2026-04-20 02:09 37.77356 -119.94980 35923 ft 439 kts 341°
2026-04-20 02:09 37.83292 -119.96859 35917 ft 440 kts 340°
2026-04-20 02:10 37.89245 -119.98761 35917 ft 441 kts 340°
2026-04-20 02:10 37.95200 -120.00653 35931 ft 442 kts 341°
2026-04-20 02:11 38.01160 -120.02545 35940 ft 442 kts 341°
2026-04-20 02:11 38.07119 -120.04456 35951 ft 442 kts 341°
2026-04-20 02:12 38.13087 -120.06371 35942 ft 442 kts 341°
2026-04-20 02:12 38.19051 -120.08278 35942 ft 442 kts 341°
2026-04-20 02:13 38.25095 -120.10260 35944 ft 453 kts 339°
2026-04-20 02:13 38.31114 -120.12571 35959 ft 456 kts 337°
2026-04-20 02:14 38.37178 -120.15063 35957 ft 457 kts 337°
2026-04-20 02:14 38.43258 -120.17514 35945 ft 458 kts 337°
2026-04-20 02:15 38.49352 -120.19916 35963 ft 458 kts 338°
2026-04-20 02:15 38.55422 -120.22299 35955 ft 458 kts 338°
2026-04-20 02:16 38.61535 -120.24708 35955 ft 459 kts 338°
2026-04-20 02:16 38.67607 -120.27121 35950 ft 459 kts 338°
2026-04-20 02:17 38.73723 -120.29545 35937 ft 459 kts 338°
2026-04-20 02:17 38.79802 -120.31970 35941 ft 459 kts 337°
2026-04-20 02:18 38.85910 -120.34411 35957 ft 459 kts 338°
2026-04-20 02:18 38.92038 -120.36856 35943 ft 460 kts 338°
2026-04-20 02:19 38.98131 -120.39285 35938 ft 461 kts 338°
2026-04-20 02:19 39.04268 -120.41745 35958 ft 461 kts 337°
2026-04-20 02:20 39.10415 -120.44227 35960 ft 462 kts 337°
2026-04-20 02:20 39.16526 -120.46682 35977 ft 463 kts 337°
2026-04-20 02:21 39.25781 -120.50414 36005 ft 464 kts 337°
2026-04-20 02:22 39.31960 -120.52910 36006 ft 464 kts 337°
2026-04-20 02:22 39.38090 -120.55390 35916 ft 465 kts 337°
2026-04-20 02:23 39.44280 -120.57894 35922 ft 466 kts 337°
2026-04-20 02:23 39.50473 -120.60414 35918 ft 466 kts 337°
2026-04-20 02:24 39.56666 -120.62940 35944 ft 467 kts 337°
2026-04-20 02:24 39.62831 -120.65464 35930 ft 467 kts 337°
2026-04-20 02:25 39.69052 -120.68003 35928 ft 468 kts 337°
2026-04-20 02:25 39.75281 -120.70548 35930 ft 468 kts 337°
2026-04-20 02:26 39.81468 -120.73075 35923 ft 469 kts 337°
2026-04-20 02:26 39.87717 -120.75644 35928 ft 470 kts 337°
2026-04-20 02:27 39.93956 -120.78223 35927 ft 470 kts 337°
2026-04-20 02:27 40.00158 -120.80785 35926 ft 471 kts 337°
2026-04-20 02:28 40.06418 -120.83378 35920 ft 471 kts 337°
2026-04-20 02:28 40.12687 -120.85972 35928 ft 472 kts 337°
2026-04-20 02:29 40.18945 -120.88567 35932 ft 472 kts 337°
2026-04-20 02:29 40.25167 -120.91147 35955 ft 472 kts 337°
2026-04-20 02:30 40.31435 -120.93766 35937 ft 473 kts 337°
2026-04-20 02:30 40.37736 -120.96392 35941 ft 474 kts 337°
2026-04-20 02:31 40.43990 -120.99012 35937 ft 474 kts 336°
2026-04-20 02:31 40.50292 -121.01650 35939 ft 474 kts 337°
2026-04-20 02:32 40.56587 -121.04293 35943 ft 474 kts 336°
2026-04-20 02:32 40.62842 -121.06929 35942 ft 475 kts 336°
2026-04-20 02:33 40.69149 -121.09591 35932 ft 476 kts 336°
2026-04-20 02:33 40.75471 -121.12265 35908 ft 476 kts 337°
2026-04-20 02:34 40.81761 -121.14924 35920 ft 477 kts 337°
2026-04-20 02:34 40.88096 -121.17601 35913 ft 477 kts 337°
2026-04-20 02:35 40.94421 -121.20288 35915 ft 477 kts 337°
2026-04-20 02:35 41.00743 -121.22983 35909 ft 478 kts 337°
2026-04-20 02:36 41.07078 -121.25681 35912 ft 478 kts 337°
2026-04-20 02:36 41.13373 -121.28379 35927 ft 478 kts 337°
2026-04-20 02:37 41.19714 -121.31097 35918 ft 478 kts 337°
2026-04-20 02:37 41.26060 -121.33820 35925 ft 479 kts 337°
2026-04-20 02:38 41.32376 -121.36542 35927 ft 479 kts 337°
2026-04-20 02:38 41.38736 -121.39292 35930 ft 480 kts 337°
2026-04-20 02:39 41.45104 -121.42043 35953 ft 480 kts 337°
2026-04-20 02:39 41.51443 -121.44782 35938 ft 481 kts 337°
2026-04-20 02:40 41.57826 -121.47548 35929 ft 482 kts 337°
2026-04-20 02:40 41.64217 -121.50321 35937 ft 483 kts 337°
2026-04-20 02:41 41.70627 -121.53109 35918 ft 485 kts 337°
2026-04-20 02:41 41.77053 -121.55922 35888 ft 486 kts 337°
2026-04-20 02:42 41.83455 -121.58718 35904 ft 487 kts 337°
2026-04-20 02:42 41.89923 -121.61558 35896 ft 489 kts 337°
2026-04-20 02:43 41.96377 -121.64396 35899 ft 490 kts 337°
2026-04-20 02:43 42.02870 -121.67253 35920 ft 491 kts 337°
2026-04-20 02:44 42.09369 -121.70119 35925 ft 491 kts 337°
2026-04-20 02:44 42.15872 -121.73006 35926 ft 491 kts 336°
2026-04-20 02:45 42.22327 -121.76100 35887 ft 490 kts 335°
2026-04-20 02:45 42.28668 -121.79341 35886 ft 489 kts 335°
2026-04-20 02:46 42.35040 -121.82585 35911 ft 489 kts 335°
2026-04-20 02:46 42.41417 -121.85776 35905 ft 488 kts 335°
2026-04-20 02:47 42.46720 -121.88420 35901 ft 488 kts 335°
2026-04-20 02:47 42.53096 -121.91606 35903 ft 488 kts 335°
2026-04-20 02:48 42.59466 -121.94811 35901 ft 488 kts 335°
2026-04-20 02:48 42.65840 -121.98036 35890 ft 489 kts 335°
2026-04-20 02:49 42.72228 -122.01271 35893 ft 489 kts 335°
2026-04-20 02:49 42.78622 -122.04509 35857 ft 490 kts 335°
2026-04-20 02:50 42.85018 -122.07754 35866 ft 490 kts 335°
2026-04-20 02:50 42.91413 -122.10997 35877 ft 490 kts 336°
2026-04-20 02:51 42.97768 -122.14236 35868 ft 490 kts 336°
2026-04-20 02:51 43.04161 -122.17503 35894 ft 490 kts 336°
2026-04-20 02:52 43.10559 -122.20787 35878 ft 491 kts 336°
2026-04-20 02:52 43.16978 -122.24089 35867 ft 492 kts 336°
2026-04-20 02:53 43.23392 -122.27381 35883 ft 492 kts 336°
2026-04-20 02:53 43.29827 -122.30696 35867 ft 493 kts 336°
2026-04-20 02:54 43.36223 -122.34002 35843 ft 494 kts 335°
2026-04-20 02:54 43.42664 -122.37345 35869 ft 494 kts 335°
2026-04-20 02:55 43.49117 -122.40692 35869 ft 495 kts 335°
2026-04-20 02:55 43.55541 -122.44038 35872 ft 496 kts 335°
2026-04-20 02:56 43.62013 -122.47415 35891 ft 497 kts 336°
2026-04-20 02:56 43.68481 -122.50785 35879 ft 497 kts 336°
2026-04-20 02:57 43.74950 -122.54167 35876 ft 497 kts 336°
2026-04-20 02:57 43.81430 -122.57580 35894 ft 498 kts 336°
2026-04-20 02:58 43.87914 -122.60992 35881 ft 498 kts 336°
2026-04-20 02:58 43.94351 -122.64396 35870 ft 498 kts 335°
2026-04-20 02:59 44.00819 -122.67813 35887 ft 497 kts 335°
2026-04-20 02:59 44.07280 -122.71229 35888 ft 496 kts 335°
2026-04-20 03:00 44.13867 -122.74183 35892 ft 500 kts 347°
2026-04-20 03:00 44.20825 -122.74744 35896 ft 503 kts
2026-04-20 03:01 44.27771 -122.74031 35896 ft 503 kts
2026-04-20 03:01 44.34761 -122.73348 35862 ft 503 kts
2026-04-20 03:02 44.41738 -122.72672 35900 ft 502 kts
2026-04-20 03:02 44.48699 -122.71996 35905 ft 501 kts
2026-04-20 03:03 44.55662 -122.71307 35907 ft 501 kts
2026-04-20 03:03 44.62618 -122.70610 35913 ft 501 kts
2026-04-20 03:04 44.69533 -122.69907 35892 ft 499 kts
2026-04-20 03:04 44.76462 -122.69206 35915 ft 498 kts
2026-04-20 03:05 44.83358 -122.68504 35933 ft 496 kts
2026-04-20 03:05 44.90243 -122.67813 35919 ft 495 kts
2026-04-20 03:06 44.97124 -122.67135 35910 ft 495 kts
2026-04-20 03:06 45.03961 -122.66447 35897 ft 494 kts
2026-04-20 03:07 45.10813 -122.65737 35910 ft 493 kts
2026-04-20 03:07 45.17660 -122.65027 35898 ft 492 kts
2026-04-20 03:08 45.24499 -122.64550 35889 ft 489 kts 351°
2026-04-20 03:08 45.27788 -122.65634 35889 ft 484 kts 340°
2026-04-20 03:08 45.30969 -122.67170 35891 ft 483 kts 336°
2026-04-20 03:09 45.37154 -122.70722 35873 ft 482 kts 334°
2026-04-20 03:09 45.43367 -122.74419 35854 ft 483 kts 335°
2026-04-20 03:10 45.49642 -122.77923 35892 ft 484 kts 336°
2026-04-20 03:10 45.55917 -122.81406 35866 ft 482 kts 330°
2026-04-20 03:10 45.58610 -122.84082 35720 ft 464 kts 311°
2026-04-20 03:11 45.60592 -122.87584 34897 ft 458 kts 294°
2026-04-20 03:11 45.61774 -122.91736 34169 ft 448 kts 277°
2026-04-20 03:11 45.62047 -122.96106 33398 ft 438 kts 260°
2026-04-20 03:11 45.61408 -123.00288 32595 ft 429 kts 243°
2026-04-20 03:12 45.60029 -123.04026 31814 ft 425 kts 235°
2026-04-20 03:12 45.58368 -123.07512 31049 ft 421 kts 224°
2026-04-20 03:12 45.56183 -123.10265 30310 ft 418 kts 215°
2026-04-20 03:12 45.53866 -123.12778 29510 ft 418 kts 214°
2026-04-20 03:13 45.51527 -123.15286 28405 ft 424 kts 214°
2026-04-20 03:13 45.49182 -123.17795 27349 ft 430 kts 214°
2026-04-20 03:13 45.46776 -123.20381 26319 ft 435 kts 217°
2026-04-20 03:13 45.44687 -123.23526 25324 ft 444 kts 233°
2026-04-20 03:14 45.43180 -123.27410 24355 ft 449 kts 239°
2026-04-20 03:14 45.41398 -123.30996 23198 ft 435 kts 220°
2026-04-20 03:14 45.38950 -123.33296 21997 ft 418 kts 199°
2026-04-20 03:14 45.36141 -123.34118 20850 ft 410 kts 181°
2026-04-20 03:15 45.33320 -123.33940 19777 ft 403 kts 173°
2026-04-20 03:15 45.30591 -123.33174 18755 ft 397 kts 165°
2026-04-20 03:15 45.28050 -123.31728 17695 ft 388 kts 153°
2026-04-20 03:15 45.25905 -123.29548 16640 ft 381 kts 139°
2026-04-20 03:16 45.24238 -123.26669 15611 ft 376 kts 125°
2026-04-20 03:16 45.23136 -123.23328 14636 ft 373 kts 112°
2026-04-20 03:16 45.22591 -123.19676 13686 ft 386 kts 100°
2026-04-20 03:16 45.22648 -123.15807 12588 ft 400 kts 86°
2026-04-20 03:17 45.23379 -123.11951 11488 ft 412 kts 71°
2026-04-20 03:17 45.24796 -123.08426 10488 ft 405 kts 56°
2026-04-20 03:17 45.26714 -123.05609 9444 ft 389 kts 41°
2026-04-20 03:17 45.28920 -123.03534 8380 ft 372 kts 33°
2026-04-20 03:18 45.31077 -123.01657 7405 ft 355 kts 33°
2026-04-20 03:18 45.33129 -122.99857 6508 ft 338 kts 33°
2026-04-20 03:18 45.35059 -122.98152 5642 ft 324 kts 33°
2026-04-20 03:18 45.36966 -122.96459 5191 ft 320 kts 33°
2026-04-20 03:19 45.38818 -122.94812 4958 ft 308 kts 33°
2026-04-20 03:19 45.40602 -122.93228 4757 ft 296 kts 32°
2026-04-20 03:19 45.42318 -122.91706 4552 ft 285 kts 32°
2026-04-20 03:19 45.43976 -122.90236 4353 ft 275 kts 32°
2026-04-20 03:20 45.45568 -122.88825 4171 ft 264 kts 33°
2026-04-20 03:20 45.47097 -122.87471 3993 ft 254 kts 33°
2026-04-20 03:20 45.48570 -122.86164 3819 ft 245 kts 33°
2026-04-20 03:20 45.49992 -122.84901 3654 ft 237 kts 32°
2026-04-20 03:21 45.51371 -122.83677 3497 ft 228 kts 32°
2026-04-20 03:21 45.52679 -122.82515 3351 ft 216 kts 32°
2026-04-20 03:21 45.53924 -122.81408 3192 ft 206 kts 31°
2026-04-20 03:21 45.55110 -122.80351 3077 ft 203 kts 31°
2026-04-20 03:22 45.56287 -122.79302 2948 ft 193 kts 31°
2026-04-20 03:22 45.57376 -122.78329 2816 ft 177 kts 31°
2026-04-20 03:22 45.58384 -122.77427 2694 ft 166 kts 31°
2026-04-20 03:22 45.59334 -122.76579 2571 ft 158 kts 30°
2026-04-20 03:23 45.60252 -122.75758 2478 ft 154 kts 30°
2026-04-20 03:23 45.61155 -122.74953 2401 ft 151 kts 30°
2026-04-20 03:23 45.62047 -122.74158 2275 ft 151 kts 30°
2026-04-20 03:23 45.62883 -122.73289 2084 ft 147 kts 42°
2026-04-20 03:24 45.63409 -122.72066 1872 ft 145 kts 66°
2026-04-20 03:24 45.63539 -122.70628 1717 ft 150 kts 90°
2026-04-20 03:24 45.63224 -122.69194 1545 ft 154 kts 116°
2026-04-20 03:24 45.62703 -122.67857 1358 ft 154 kts 116°
2026-04-20 03:25 45.62183 -122.66518 1153 ft 154 kts 117°
2026-04-20 03:25 45.61665 -122.65186 952 ft 151 kts 118°
2026-04-20 03:25 45.61161 -122.63887 749 ft 148 kts 118°
2026-04-20 03:25 45.60662 -122.62612 553 ft 146 kts 117°
2026-04-20 03:26 45.60163 -122.61336 321 ft 147 kts 117°
2026-04-20 03:26 45.59673 -122.60050 142 ft 148 kts 115°
2026-04-20 03:26 45.59189 -122.58816 35 ft 135 kts 117°
2026-04-20 03:26 45.58862 -122.57971 32 ft 57 kts 118°
2026-04-20 03:27 45.58730 -122.57648 32 ft 25 kts 129°
2026-04-20 03:27 45.58634 -122.57690 32 ft 15 kts 278°
2026-04-20 03:27 45.58678 -122.57823 32 ft 14 kts 300°
2026-04-20 03:27 45.58726 -122.57943 32 ft 14 kts 299°
2026-04-20 03:28 45.58771 -122.58060 30 ft 13 kts 298°
2026-04-20 03:28 45.58833 -122.58220 32 ft 29 kts 299°
2026-04-20 03:28 45.59056 -122.58793 32 ft 32 kts 299°
2026-04-20 03:29 45.59139 -122.59002 31 ft 20 kts 299°
2026-04-20 03:29 45.59204 -122.59170 32 ft 19 kts 299°
2026-04-20 03:29 45.59269 -122.59337 31 ft 20 kts 299°
2026-04-20 03:29 45.59336 -122.59508 31 ft 19 kts 298°
2026-04-20 03:30 45.59348 -122.59669 30 ft 17 kts 237°
2026-04-20 03:30 45.59273 -122.59797 29 ft 17 kts 215°
2026-04-20 03:30 45.59179 -122.59869 29 ft 12 kts 202°
2026-04-20 03:30 45.59109 -122.59841 29 ft 10 kts 133°
2026-04-20 03:31 45.59062 -122.59809 29 ft 7 kts 199°
2026-04-20 03:31 45.59036 -122.59830 29 ft 2 kts 210°
2026-04-20 03:31 45.59027 -122.59837 29 ft 0 kts 211°